FW0979 Weather Reports


Display with metric or nautical units.
time (UTC)temp
F
wind
direction
speed
MPH
gust
MPH
rain 1hr
in
rain 24hr
in
rain mn
in
humidity
%
barometer
mb
20260504050006 63 189 6.0 11.0 0.00 0.00 0.00 58 1011.2
20260504044506 63 195 6.0 12.0 0.00 0.00 0.00 57 1011.2
20260504043006 64 182 5.0 9.0 0.00 0.00 0.00 55 1011.3
20260504041505 64 180 6.0 12.0 0.00 0.00 0.00 54 1011.4
20260504040013 65 191 5.0 11.0 0.00 0.00 0.00 53 1011.5
20260504034503 65 196 5.0 10.0 0.00 0.00 0.00 52 1011.4
20260504033002 66 205 6.0 12.0 0.00 0.00 0.00 51 1011.2
20260504031502 66 181 5.0 11.0 0.00 0.00 0.00 50 1011.2
20260504030002 66 191 3.0 7.0 0.00 0.00 0.00 49 1011.1
20260504024500 67 191 2.0 5.0 0.00 0.00 0.00 47 1011.0
20260504023002 68 193 3.0 6.0 0.00 0.00 0.00 46 1011.0
20260504021603 69 192 4.0 8.0 0.00 0.00 0.00 44 1010.8
20260504020119 69 200 5.0 7.0 0.00 0.00 0.00 42 1010.8
20260504014605 70 212 3.0 8.0 0.00 0.00 0.00 40 1010.9
20260504013106 71 205 3.0 9.0 0.00 0.00 0.00 38 1010.8
20260504011600 72 219 5.0 11.0 0.00 0.00 0.00 37 1010.9
20260504010058 73 234 5.0 11.0 0.00 0.00 0.00 36 1010.8
20260504004559 73 238 5.0 10.0 0.00 0.00 0.00 36 1010.9
20260504003057 73 248 6.0 13.0 0.00 0.00 0.00 36 1011.1
20260504001556 74 228 9.0 16.0 0.00 0.00 0.00 34 1011.3
20260504000054 75 209 9.0 22.0 0.00 0.00 0.00 34 1011.4
20260503234550 75 236 7.0 13.0 0.00 0.00 0.00 35 1011.5
20260503233049 75 224 7.0 15.0 0.00 0.00 0.00 35 1011.8
20260503231547 75 212 7.0 18.0 0.00 0.00 0.00 34 1011.8
20260503230059 74 220 6.0 15.0 0.00 0.00 0.00 36 1011.9
20260503224542 74 229 8.0 17.0 0.00 0.00 0.00 36 1012.2
20260503223040 75 243 8.0 16.0 0.00 0.00 0.00 35 1012.4
20260503221538 75 238 9.0 16.0 0.00 0.00 0.00 35 1012.7
20260503220036 75 252 8.0 20.0 0.00 0.00 0.00 35 1012.8
20260503214541 74 200 8.0 15.0 0.00 0.00 0.00 36 1013.1
20260503213032 74 229 9.0 17.0 0.00 0.00 0.00 35 1013.4
20260503211529 75 220 7.0 19.0 0.00 0.00 0.00 35 1013.6
20260503210025 74 241 10.0 20.0 0.00 0.00 0.00 35 1014.2
20260503204523 74 200 5.0 13.0 0.00 0.00 0.00 36 1014.4
20260503203020 73 233 7.0 16.0 0.00 0.00 0.00 36 1014.6
20260503201518 73 179 8.0 18.0 0.00 0.00 0.00 37 1015.0
20260503200016 73 199 8.0 18.0 0.00 0.00 0.00 37 1015.4
20260503194513 72 212 7.0 16.0 0.00 0.00 0.00 38 1015.4
20260503193011 72 179 7.0 16.0 0.00 0.00 0.00 38 1015.8
20260503191515 72 263 8.0 15.0 0.00 0.00 0.00 37 1016.2
20260503190008 73 179 7.0 17.0 0.00 0.00 0.00 38 1016.5
20260503184504 72 213 9.0 16.0 0.00 0.00 0.00 38 1016.8
20260503183102 72 236 8.0 15.0 0.00 0.00 0.00 39 1017.0
20260503181614 72 221 7.0 17.0 0.00 0.00 0.00 40 1017.3
20260503180115 71 210 8.0 15.0 0.00 0.00 0.00 40 1017.6
20260503174557 70 245 8.0 17.0 0.00 0.00 0.00 40 1018.1
20260503173059 70 224 8.0 18.0 0.00 0.00 0.00 42 1018.1
20260503171545 69 178 8.0 17.0 0.00 0.00 0.00 43 1018.5
20260503081534 53 210 2.0 6.0 0.00 0.00 0.00 71 1019.8
20260503071511 54 360 2.0 5.0 0.00 0.00 0.00 70 1020.5